TimeEST,TemperatureF,Dew PointF,Humidity,Sea Level PressureIn,VisibilityMPH,Wind Direction,Wind SpeedMPH,Gust SpeedMPH,PrecipitationIn,Events,Conditions,WindDirDegrees,DateUTC
12:15 AM,21.7,17.6,84,30.05,10.0,WSW,5.8,-,N/A,,Scattered Clouds,250,2012-12-30 05:15:00
12:34 AM,22.3,17.8,83,30.05,10.0,West,5.8,-,N/A,,Mostly Cloudy,260,2012-12-30 05:34:00
12:55 AM,23.0,18.5,83,30.06,10.0,West,5.8,-,N/A,,Mostly Cloudy,260,2012-12-30 05:55:00
1:15 AM,23.4,18.7,82,30.06,10.0,West,5.8,-,N/A,,Overcast,260,2012-12-30 06:15:00
1:34 AM,23.9,19.2,82,30.07,10.0,West,3.5,-,N/A,,Overcast,260,2012-12-30 06:34:00
1:55 AM,24.8,20.3,83,30.07,10.0,West,5.8,-,N/A,,Overcast,260,2012-12-30 06:55:00
2:14 AM,25.5,20.3,81,30.08,10.0,West,5.8,-,N/A,Snow,Light Snow,260,2012-12-30 07:14:00
2:35 AM,25.7,20.8,82,30.09,10.0,West,4.6,-,N/A,Snow,Light Snow,270,2012-12-30 07:35:00
2:55 AM,26.2,21.2,81,30.10,7.0,WSW,6.9,-,N/A,Snow,Light Snow,250,2012-12-30 07:55:00
3:15 AM,26.6,22.1,83,30.11,5.0,WSW,6.9,-,N/A,Snow,Light Snow,250,2012-12-30 08:15:00
3:35 AM,27.0,23.0,85,30.11,5.0,West,6.9,-,N/A,Snow,Light Snow,260,2012-12-30 08:35:00
3:55 AM,27.3,23.9,87,30.11,7.0,West,6.9,-,N/A,Snow,Light Snow,260,2012-12-30 08:55:00
4:15 AM,27.5,24.4,88,30.12,7.0,West,8.1,-,N/A,Snow,Light Snow,260,2012-12-30 09:15:00
4:35 AM,27.9,24.8,88,30.12,7.0,West,6.9,-,N/A,Snow,Light Snow,260,2012-12-30 09:35:00
4:55 AM,28.2,25.3,89,30.13,10.0,West,8.1,-,N/A,,Overcast,260,2012-12-30 09:55:00
5:15 AM,28.4,25.7,90,30.14,7.0,West,10.4,-,N/A,Snow,Light Snow,260,2012-12-30 10:15:00
5:35 AM,28.8,25.7,88,30.15,10.0,West,10.4,-,N/A,Snow,Light Snow,270,2012-12-30 10:35:00
5:55 AM,29.1,25.5,86,30.15,10.0,West,8.1,-,N/A,,Overcast,270,2012-12-30 10:55:00
6:15 AM,29.3,24.6,83,30.16,10.0,West,9.2,-,N/A,,Overcast,280,2012-12-30 11:15:00
6:35 AM,29.3,23.9,80,30.17,10.0,West,6.9,-,N/A,,Overcast,280,2012-12-30 11:35:00
6:54 AM,29.3,24.3,81,30.18,10.0,West,6.9,-,N/A,,Overcast,270,2012-12-30 11:54:00
7:15 AM,29.3,24.3,81,30.20,10.0,West,6.9,-,N/A,,Overcast,260,2012-12-30 12:15:00
7:35 AM,29.3,24.4,82,30.21,10.0,West,9.2,-,N/A,,Overcast,270,2012-12-30 12:35:00
7:55 AM,29.1,22.8,77,30.21,10.0,West,12.7,-,N/A,,Overcast,270,2012-12-30 12:55:00
8:15 AM,28.6,21.4,74,30.22,10.0,West,10.4,-,N/A,,Overcast,270,2012-12-30 13:15:00
8:35 AM,28.4,21.2,74,30.22,10.0,West,9.2,-,N/A,,Overcast,260,2012-12-30 13:35:00
8:55 AM,28.6,21.6,75,30.23,10.0,West,9.2,-,N/A,,Overcast,270,2012-12-30 13:55:00
9:15 AM,28.4,21.6,76,30.23,10.0,WSW,5.8,-,N/A,,Overcast,250,2012-12-30 14:15:00
9:35 AM,28.4,21.6,76,30.23,7.0,SW,5.8,-,N/A,Snow,Light Snow,230,2012-12-30 14:35:00
9:55 AM,28.4,22.1,77,30.24,10.0,SW,3.5,-,N/A,Snow,Light Snow,220,2012-12-30 14:55:00
10:15 AM,28.8,22.6,78,30.25,7.0,Calm,Calm,-,N/A,Snow,Light Snow,0,2012-12-30 15:15:00
10:35 AM,29.1,22.8,77,30.25,10.0,SW,4.6,-,N/A,Snow,Light Snow,230,2012-12-30 15:35:00
10:55 AM,29.7,22.1,73,30.25,10.0,SW,6.9,-,N/A,,Overcast,230,2012-12-30 15:55:00
11:14 AM,29.8,21.7,72,30.25,10.0,WSW,9.2,17.3,N/A,,Overcast,250,2012-12-30 16:14:00
11:35 AM,29.8,21.6,71,30.24,10.0,WSW,12.7,-,N/A,,Overcast,250,2012-12-30 16:35:00
11:55 AM,29.8,21.2,70,30.24,10.0,WSW,11.5,18.4,N/A,,Overcast,250,2012-12-30 16:55:00
12:15 PM,30.0,21.9,72,30.24,10.0,WSW,6.9,-,N/A,,Overcast,250,2012-12-30 17:15:00
12:35 PM,30.0,21.7,71,30.23,10.0,WSW,11.5,17.3,N/A,,Overcast,250,2012-12-30 17:35:00
12:55 PM,30.2,21.6,70,30.22,10.0,WSW,11.5,-,N/A,,Overcast,240,2012-12-30 17:55:00
1:15 PM,29.8,21.9,72,30.23,10.0,SW,9.2,-,N/A,,Overcast,230,2012-12-30 18:15:00
1:35 PM,29.5,21.7,73,30.22,10.0,SSW,10.4,16.1,N/A,,Overcast,210,2012-12-30 18:35:00
1:55 PM,29.1,21.2,72,30.22,10.0,SW,10.4,19.6,N/A,,Overcast,230,2012-12-30 18:55:00
2:15 PM,28.9,21.2,73,30.22,10.0,SW,9.2,-,N/A,,Overcast,220,2012-12-30 19:15:00
2:35 PM,28.2,21.0,74,30.21,10.0,SW,9.2,-,N/A,,Overcast,220,2012-12-30 19:35:00
2:55 PM,27.9,20.7,74,30.22,10.0,SW,12.7,16.1,N/A,,Overcast,220,2012-12-30 19:55:00
3:15 PM,27.5,20.3,74,30.22,10.0,SSW,10.4,16.1,N/A,,Overcast,210,2012-12-30 20:15:00
3:35 PM,27.3,20.3,75,30.23,10.0,SW,10.4,16.1,N/A,,Overcast,220,2012-12-30 20:35:00
3:55 PM,27.5,20.3,74,30.23,10.0,SW,9.2,-,N/A,,Overcast,220,2012-12-30 20:55:00
4:15 PM,27.5,20.3,74,30.23,10.0,SW,10.4,16.1,N/A,,Overcast,220,2012-12-30 21:15:00
4:35 PM,27.3,20.3,75,30.22,10.0,SSW,8.1,-,N/A,,Overcast,200,2012-12-30 21:35:00
4:55 PM,27.1,20.3,75,30.22,10.0,SSW,8.1,-,N/A,,Overcast,210,2012-12-30 21:55:00
5:14 PM,27.1,20.3,75,30.22,10.0,SW,8.1,-,N/A,,Overcast,220,2012-12-30 22:14:00
5:40 PM,27.0,20.3,76,30.21,10.0,SW,8.1,17.3,N/A,,Overcast,220,2012-12-30 22:40:00
6:00 PM,26.6,20.3,77,30.21,10.0,SW,9.2,-,N/A,,Overcast,220,2012-12-30 23:00:00
6:35 PM,26.6,20.3,77,30.21,10.0,SSW,8.1,-,N/A,,Overcast,200,2012-12-30 23:35:00
6:55 PM,26.4,20.7,79,30.21,10.0,SSW,9.2,-,N/A,,Overcast,200,2012-12-30 23:55:00
7:15 PM,26.2,20.3,78,30.21,10.0,SSW,9.2,-,N/A,,Overcast,200,2012-12-31 00:15:00
7:35 PM,25.7,20.1,79,30.22,10.0,SSW,11.5,-,N/A,,Overcast,200,2012-12-31 00:35:00
7:55 PM,25.5,19.9,79,30.22,10.0,SSW,10.4,-,N/A,,Overcast,200,2012-12-31 00:55:00
8:15 PM,25.0,18.9,78,30.23,10.0,SSW,11.5,17.3,N/A,,Overcast,200,2012-12-31 01:15:00
8:35 PM,25.2,17.6,73,30.21,10.0,SSW,12.7,-,N/A,,Overcast,200,2012-12-31 01:35:00
8:55 PM,25.7,17.4,71,30.21,10.0,SSW,12.7,18.4,N/A,,Overcast,200,2012-12-31 01:55:00
9:15 PM,25.7,17.6,71,30.20,10.0,SSW,11.5,-,N/A,,Overcast,200,2012-12-31 02:15:00
9:35 PM,24.6,17.1,73,30.19,7.0,SSW,9.2,-,N/A,,Overcast,200,2012-12-31 02:35:00
9:54 PM,23.4,16.3,75,30.17,7.0,South,9.2,-,N/A,,Scattered Clouds,170,2012-12-31 02:54:00
10:15 PM,22.5,15.8,76,30.16,7.0,South,8.1,-,N/A,,Scattered Clouds,180,2012-12-31 03:15:00
10:35 PM,21.7,15.6,77,30.16,7.0,South,5.8,-,N/A,,Scattered Clouds,180,2012-12-31 03:35:00
10:54 PM,21.6,15.6,78,30.15,7.0,South,6.9,-,N/A,,Clear,190,2012-12-31 03:54:00
11:15 PM,21.9,16.2,78,30.14,7.0,SSW,8.1,-,N/A,,Clear,200,2012-12-31 04:15:00
11:35 PM,22.1,16.5,79,30.14,7.0,SSW,6.9,-,N/A,,Clear,200,2012-12-31 04:35:00
11:55 PM,22.3,16.9,80,30.13,7.0,SSW,6.9,-,N/A,,Clear,200,2012-12-31 04:55:00